Weather History for KPRG - September, 2013

Change the Weather History Date:

Friday, September 6, 2013

  Actual Average (KHUF) Record (KHUF)
Temperature  
Mean Temperature 72 °F 70 °F  
Max Temperature 85 °F 81 °F 104 °F (1954)
Min Temperature 59 °F 58 °F 42 °F (1988)
Degree Days  
Heating Degree Days 0 1  
Month to date heating degree days 1  
Since 1 July heating degree days 6  
Cooling Degree Days 7 5  
Month to date cooling degree days 33  
Year to date cooling degree days 912  
Growing Degree Days 22 (Base 50)    
Moisture  
Dew Point 64 °F    
Average Humidity 79    
Maximum Humidity 97    
Minimum Humidity 51    
Precipitation  
Precipitation 0.00 in 0.13 in 0.28 in (2007)
Month to date precipitation 0.77  
Year to date precipitation 32.05  
Sea Level Pressure  
Sea Level Pressure 30.16 in    
Wind  
Wind Speed 3 mph (ESE)    
Max Wind Speed 7 mph    
Max Gust Speed -    
Visibility 10 miles    
Events      
T = Trace of Precipitation, MM = Missing Value Source: NWS Daily Summary

Daily Weather History Graph

Daily Weather History Graph

Search for Another Location

Airport or City:

Trip Planner

Search our weather history database for the weather conditions in past years. The results will help you decide how hot, cold, wet, or windy it might be!

Date:

Astronomy

Sep. 06, 2013 Rise Set
Actual Time 6:23 AM CDT 7:13 PM CDT
Civil Twilight 5:56 AM CDT 7:40 PM CDT
Nautical Twilight 5:23 AM CDT 8:13 PM CDT
Astronomical Twilight 4:50 AM CDT 8:46 PM CDT
Moon 7:35 AM CDT 7:38 PM CDT
Length of Visible Light 13h 44m
Length of Day
12h 49m
New Moon, 2% of the Moon is Illuminated
Sep 6
New Moon
Sep 12
First Quarter
Sep 19
Full
Sep 26
Last Quarter
Oct 4
New

Hourly Weather History & Observations

Time (CDT) Temp. Heat Index Dew Point Humidity Pressure Visibility Wind Dir Wind Speed Gust Speed Precip Events Conditions
12:15 AM 65.5 °F - 63.7 °F 94% 30.20 in 10.0 mi NE 3.5 mph - N/A   Clear
12:35 AM 64.4 °F - 62.8 °F 94% 30.20 in 10.0 mi ENE 3.5 mph - N/A   Clear
12:55 AM 63.7 °F - 62.4 °F 96% 30.20 in 10.0 mi ENE 3.5 mph - N/A   Clear
1:15 AM 64.2 °F - 63.0 °F 96% 30.21 in 10.0 mi Calm Calm - N/A   Clear
1:35 AM 64.8 °F - 63.1 °F 94% 30.20 in 10.0 mi Calm Calm - N/A   Clear
1:55 AM 63.7 °F - 62.1 °F 94% 30.21 in 10.0 mi ENE 3.5 mph - N/A   Clear
2:15 AM 63.0 °F - 61.7 °F 96% 30.20 in 10.0 mi ENE 3.5 mph - N/A   Clear
2:35 AM 63.0 °F - 61.7 °F 96% 30.20 in 10.0 mi ENE 4.6 mph - N/A   Clear
2:55 AM 62.6 °F - 61.3 °F 96% 30.20 in 10.0 mi ENE 3.5 mph - N/A   Clear
3:15 AM 62.6 °F - 61.2 °F 95% 30.20 in 10.0 mi Calm Calm - N/A   Clear
3:35 AM 62.6 °F - 61.2 °F 95% 30.20 in 10.0 mi Calm Calm - N/A   Clear
3:55 AM 60.8 °F - 59.7 °F 96% 30.20 in 10.0 mi East 3.5 mph - N/A   Clear
4:15 AM 60.4 °F - 59.4 °F 96% 30.20 in 7.0 mi Calm Calm - N/A   Clear
4:35 AM 60.8 °F - 60.1 °F 97% 30.19 in 10.0 mi East 3.5 mph - N/A   Clear
4:55 AM 60.4 °F - 59.5 °F 97% 30.19 in 10.0 mi ENE 4.6 mph - N/A   Clear
5:15 AM 60.6 °F - 59.7 °F 97% 30.20 in 10.0 mi ENE 3.5 mph - N/A   Clear
5:35 AM 60.1 °F - 59.2 °F 97% 30.20 in 10.0 mi ENE 3.5 mph - N/A   Clear
5:55 AM 59.9 °F - 59.0 °F 97% 30.20 in 10.0 mi Calm Calm - N/A   Clear
6:15 AM 60.1 °F - 58.8 °F 96% 30.21 in 10.0 mi Calm Calm - N/A   Clear
6:35 AM 59.2 °F - 58.3 °F 97% 30.21 in 10.0 mi East 3.5 mph - N/A   Clear
6:55 AM 60.6 °F - 59.9 °F 97% 30.20 in 10.0 mi Calm Calm - N/A   Clear
7:15 AM 62.4 °F - 60.1 °F 92% 30.21 in 10.0 mi Calm Calm - N/A   Clear
7:35 AM 63.5 °F - 60.4 °F 90% 30.21 in 10.0 mi Calm Calm - N/A   Clear
7:55 AM 64.9 °F - 60.8 °F 86% 30.21 in 10.0 mi ESE 4.6 mph - N/A   Clear
8:15 AM 66.2 °F - 61.0 °F 83% 30.22 in 10.0 mi ESE 5.8 mph - N/A   Clear
8:35 AM 67.5 °F - 60.8 °F 79% 30.22 in 10.0 mi ESE 4.6 mph - N/A   Clear
8:55 AM 68.7 °F - 61.2 °F 77% 30.22 in 10.0 mi East 5.8 mph - N/A   Clear
9:15 AM 70.3 °F - 61.3 °F 73% 30.22 in 10.0 mi ESE 4.6 mph - N/A   Clear
9:35 AM 72.0 °F - 61.5 °F 70% 30.23 in 10.0 mi SE 5.8 mph - N/A   Clear
9:55 AM 73.0 °F - 61.7 °F 67% 30.23 in 10.0 mi SSE 4.6 mph - N/A   Clear
10:15 AM 73.9 °F - 62.2 °F 67% 30.22 in 10.0 mi ESE 6.9 mph - N/A   Clear
10:35 AM 76.1 °F - 63.9 °F 66% 30.21 in 10.0 mi ESE 3.5 mph - N/A   Clear
10:55 AM 77.4 °F - 63.5 °F 62% 30.21 in 10.0 mi South 4.6 mph - N/A   Clear
11:15 AM 79.0 °F - 65.5 °F 63% 30.21 in 10.0 mi SSE 5.8 mph - N/A   Clear
11:35 AM 79.9 °F - 64.9 °F 60% 30.20 in 10.0 mi South 3.5 mph - N/A   Clear
11:55 AM 81.1 °F 82.9 °F 65.3 °F 58% 30.20 in 10.0 mi South 3.5 mph - N/A   Clear
12:15 PM 81.9 °F 83.5 °F 64.9 °F 56% 30.19 in 10.0 mi SE 3.5 mph - N/A   Clear
12:35 PM 82.2 °F 84.0 °F 65.3 °F 56% 30.18 in 10.0 mi SSE 3.5 mph - N/A   Clear
12:55 PM 82.9 °F 84.8 °F 65.5 °F 55% 30.18 in 10.0 mi SE 3.5 mph - N/A   Clear
1:15 PM 83.5 °F 85.5 °F 66.0 °F 55% 30.17 in 10.0 mi East 3.5 mph - N/A   Clear
1:35 PM 84.4 °F 86.3 °F 65.3 °F 53% 30.17 in 10.0 mi East 3.5 mph - N/A   Clear
1:55 PM 84.4 °F 85.9 °F 64.6 °F 51% 30.16 in 10.0 mi Calm Calm - N/A   Clear
2:15 PM 84.4 °F 85.9 °F 64.6 °F 51% 30.15 in 10.0 mi East 4.6 mph - N/A   Scattered Clouds
2:35 PM 84.2 °F 85.6 °F 64.0 °F 51% 30.14 in 10.0 mi Calm Calm - N/A   Scattered Clouds
2:55 PM 85.3 °F 87.1 °F 65.3 °F 51% 30.13 in 10.0 mi ESE 3.5 mph - N/A   Mostly Cloudy
3:15 PM 85.1 °F 87.1 °F 65.8 °F 52% 30.13 in 10.0 mi South 3.5 mph - N/A   Mostly Cloudy
3:35 PM 82.8 °F 84.7 °F 65.7 °F 56% 30.12 in 10.0 mi Calm Calm - N/A   Scattered Clouds
3:55 PM 85.1 °F 87.4 °F 66.2 °F 53% 30.12 in 10.0 mi South 3.5 mph - N/A   Clear
4:15 PM 84.6 °F 86.8 °F 66.0 °F 54% 30.11 in 10.0 mi Calm Calm - N/A   Scattered Clouds
4:35 PM 83.3 °F 85.5 °F 66.2 °F 56% 30.10 in 10.0 mi Calm Calm - N/A   Scattered Clouds
4:55 PM 82.0 °F 84.5 °F 67.1 °F 60% 30.10 in 10.0 mi Calm Calm - N/A   Scattered Clouds
5:15 PM 83.3 °F 85.7 °F 66.7 °F 57% 30.10 in 10.0 mi Calm Calm - N/A   Scattered Clouds
5:35 PM 82.8 °F 84.7 °F 65.7 °F 56% 30.10 in 10.0 mi Calm Calm - N/A   Clear
5:55 PM 81.9 °F 84.4 °F 67.1 °F 61% 30.09 in 10.0 mi South 3.5 mph - N/A   Clear
6:15 PM 80.6 °F 83.4 °F 68.2 °F 66% 30.09 in 10.0 mi South 3.5 mph - N/A   Clear
6:35 PM 79.2 °F - 69.1 °F 71% 30.09 in 10.0 mi Calm Calm - N/A   Clear
6:55 PM 77.5 °F - 68.7 °F 74% 30.09 in 10.0 mi SW 3.5 mph - N/A   Clear
7:15 PM 74.7 °F - 68.5 °F 81% 30.09 in 10.0 mi SSW 4.6 mph - N/A   Clear
7:35 PM 72.1 °F - 68.0 °F 87% 30.09 in 10.0 mi Calm Calm - N/A   Clear
7:55 PM 70.7 °F - 67.3 °F 89% 30.09 in 10.0 mi Calm Calm - N/A   Clear
8:15 PM 69.4 °F - 66.2 °F 89% 30.09 in 10.0 mi Calm Calm - N/A   Clear
8:35 PM 68.4 °F - 65.8 °F 92% 30.10 in 10.0 mi Calm Calm - N/A   Clear
8:55 PM 67.5 °F - 65.7 °F 94% 30.09 in 10.0 mi Calm Calm - N/A   Clear
9:15 PM 67.1 °F - 65.3 °F 94% 30.10 in 7.0 mi Calm Calm - N/A   Clear
9:35 PM 66.9 °F - 65.7 °F 96% 30.09 in 10.0 mi Calm Calm - N/A   Clear
9:55 PM 65.8 °F - 64.6 °F 96% 30.10 in 10.0 mi Calm Calm - N/A   Clear
10:15 PM 66.2 °F - 64.9 °F 96% 30.09 in 10.0 mi Calm Calm - N/A   Clear
10:35 PM 66.9 °F - 65.5 °F 95% 30.09 in 10.0 mi SE 3.5 mph - N/A   Clear
10:55 PM 66.0 °F - 63.9 °F 93% 30.09 in 7.0 mi Calm Calm - N/A   Clear
11:15 PM 66.0 °F - 64.6 °F 95% 30.09 in 10.0 mi Calm Calm - N/A   Clear
11:35 PM 65.1 °F - 63.3 °F 94% 30.08 in 7.0 mi Calm Calm - N/A   Clear
11:55 PM 65.3 °F - 63.9 °F 95% 30.07 in 10.0 mi South 5.8 mph - N/A   Clear